User: anonymous   Login
Location: Deep South Regional Star Gaze
(30.9929°N, 90.9586°W)
Time: 14:50:47
(UTC-05:00)
Language:

MSX - Orbit

View from above orbital plane
View from above orbital plane
View from above satellite
View from above satellite

Ground track
Ground track

The orbit data is extracted from the following two-line orbital elements,

1 23851U 96024A   16125.67159642 0.00000000  00000-0  00000-0 0    08
2 23851  98.6888 147.6695 0003004  37.0906 322.9093 13.98037738    05
Epoch (UTC): 04 May 2016 16:07:05
Eccentricity: 0.0003004
inclination: 98.6888°
perigee height: 898 km
apogee height: 903 km
right ascension of ascending node: 147.6695°
argument of perigee: 37.0906°
revolutions per day: 13.98037738
mean anomaly at epoch: 322.9093°
orbit number at epoch: 0

The dashed part of the orbit path shows where the satellite is in the earth's shadow,  

DLR